Retour au catalogue

STARLINK-36138

ActifCommunicationsVLEO
NORAD 67030·PAYLOAD·🇺🇸 United States

Lancé Dec 11, 2025 depuis Cape Canaveral Space Force Station

Loading…

Prochains Passages (prochaines 24 heures)

TLE

FraisSource: CelesTrak SupGP

Époque: Sep 14, 2026, 21:12 UTC

1 67030C 25294A   26257.88381944  .00052292  00000+0  18940-2 0  2575
2 67030  43.0039  49.7194 0001733 278.2038  49.6897 15.27551982    14

Suivez STARLINK-36138 en temps réel avec AllMySat

Download on the App Store